Location: Toronto
(43.6667°N, 79.4167°W)
Time: 12:14:23
(UTC-04:00)

X-37B - Pass Details

Date: 18 June 2021
Orbit: 383 x 392 km, 45.0° (Epoch: 01 July)

Event Time Altitude Azimuth Distance (km) Brightness Sun altitude
Exits shadow 04:29:36 - 283° (WNW) 2,192 4.1 -9.9°
Reaches altitude 10° 04:31:30 10° 283° (WNW) 1,407 3.1 -9.7°
Maximum altitude 04:34:40 89° 10° (N) 389 0.6 -9.3°
Drops below altitude 10° 04:37:51 10° 103° (ESE) 1,408 3.9 -8.9°
Sets 04:39:55 0° 104° (ESE) 2,263 4.9 -8.6°
